SM6PGP-2 Weather Reports


time (UTC)temp
F
wind
direction
speed
knots
gust
knots
rain 1hr
in
rain 24hr
in
rain mn
in
humidity
%
barometer
mb
20191213051000 37 135 15.6 16.5 0.00 0.00 0.07 83 988.4
20191213050455 37 135 7.8 14.8 0.00 0.00 0.07 90 988.5
20191213045949 37 135 7.0 15.6 0.00 0.00 0.07 91 988.7
20191213045444 37 103 10.4 11.3 0.00 0.00 0.07 91 988.6
20191213044939 37 135 5.2 13.0 0.00 0.00 0.07 89 988.8
20191213044434 37 135 8.7 13.0 0.00 0.00 0.07 89 988.8
20191213043929 37 126 8.7 11.3 0.00 0.00 0.07 91 988.7
20191213043423 37 135 8.7 13.0 0.00 0.00 0.07 91 988.8
20191213042918 37 135 3.5 13.0 0.00 0.00 0.07 91 988.9
20191213042413 37 144 5.2 13.9 0.00 0.00 0.07 90 989.0
20191213041908 37 126 6.1 9.6 0.00 0.00 0.07 91 989.1
20191213041403 37 135 7.0 10.4 0.00 0.00 0.07 90 989.1
20191213040858 37 153 5.2 13.9 0.00 0.00 0.07 91 989.1
20191213040352 37 180 7.8 9.6 0.00 0.00 0.07 91 989.2
20191213035847 37 135 7.8 11.3 0.00 0.00 0.07 91 989.2
20191213035343 38 135 13.0 13.9 0.00 0.00 0.07 90 989.2
20191213034837 38 121 7.8 11.3 0.00 0.00 0.07 90 989.1
20191213034331 38 135 9.6 13.0 0.00 0.00 0.07 90 989.1
20191213033826 38 144 9.6 13.0 0.00 0.00 0.07 91 989.4
20191213033321 38 180 7.0 12.2 0.00 0.00 0.07 90 989.3
20191213032816 38 171 8.7 11.3 0.00 0.00 0.07 91 989.5
20191213032311 38 180 9.6 13.0 0.00 0.00 0.07 90 989.5
20191213031805 38 144 11.3 13.9 0.00 0.00 0.07 91 989.4
20191213031300 38 135 7.8 9.6 0.00 0.00 0.07 91 989.5
20191213030755 38 135 4.3 8.7 0.00 0.00 0.07 92 989.4
20191213030250 38 135 5.2 11.3 0.00 0.00 0.07 92 989.4
20191213025745 38 22 8.7 13.9 0.00 0.00 0.07 90 989.4
20191213025239 38 135 7.8 17.4 0.00 0.00 0.07 91 989.6
20191213024734 39 135 6.1 18.2 0.00 0.00 0.07 91 989.6
20191213024229 38 180 12.2 22.6 0.00 0.00 0.07 91 989.6
20191213023725 38 153 7.0 12.2 0.00 0.00 0.07 92 989.7
20191213023219 38 135 9.6 13.9 0.00 0.00 0.07 93 989.6
20191213022713 38 162 5.2 11.3 0.00 0.00 0.07 91 989.8
20191213022208 38 126 5.2 10.4 0.00 0.00 0.07 91 989.9
20191213021704 38 144 6.1 10.4 0.00 0.00 0.07 85 990.0
20191213021158 38 144 8.7 12.2 0.00 0.00 0.07 92 989.9
20191213020653 38 135 6.1 13.0 0.00 0.00 0.07 93 990.0
20191213020147 38 157 7.0 9.6 0.00 0.00 0.07 91 989.9
20191213015642 38 180 8.7 13.0 0.00 0.00 0.07 92 989.9
20191213015137 38 135 7.0 8.7 0.00 0.00 0.07 90 990.0
20191213014632 38 180 12.2 12.2 0.00 0.00 0.07 91 989.9
20191213014127 38 135 7.8 10.4 0.00 0.00 0.07 90 990.1
20191213013621 38 135 8.7 9.6 0.00 0.00 0.07 92 990.1
20191213013116 38 22 6.1 10.4 0.00 0.00 0.07 90 990.2
20191213012611 38 135 9.6 10.4 0.00 0.00 0.07 90 990.1
20191213012106 38 135 7.8 8.7 0.00 0.00 0.07 90 990.1
20191213011601 38 135 4.3 9.6 0.00 0.00 0.07 89 990.2
20191213011055 38 135 7.8 13.0 0.00 0.00 0.07 91 990.3
20191213010550 38 135 4.3 6.1 0.00 0.00 0.06 89 990.4
20191213010048 38 135 4.3 10.4 0.00 0.00 0.06 91 990.4
20191213005540 38 135 5.2 9.6 0.00 0.00 0.06 89 990.4
20191213005035 38 135 5.2 7.8 0.00 0.00 0.06 88 990.3
20191213004529 38 135 5.2 7.8 0.00 0.00 0.06 90 990.4
20191213004024 38 117 4.3 7.0 0.00 0.00 0.06 90 990.3
20191213003519 38 99 8.7 8.7 0.00 0.00 0.06 89 990.4
20191213003014 39 135 10.4 10.4 0.00 0.00 0.06 89 990.4
20191213002509 39 45 10.4 13.9 0.00 0.00 0.06 90 990.4
20191213002003 39 45 9.6 20.9 0.00 0.00 0.06 89 990.5
20191213001458 39 99 8.7 13.9 0.00 0.00 0.06 89 990.5
20191213000953 39 81 7.8 9.6 0.00 0.00 0.06 91 990.5
20191213000448 39 135 7.0 9.6 0.00 0.00 0.06 89 990.5
20191212235943 39 22 5.2 7.8 0.00 0.00 0.06 91 990.6
20191212235437 39 27 7.0 8.7 0.00 0.00 0.06 90 990.5
20191212234932 39 27 5.2 11.3 0.00 0.00 0.06 91 990.5
20191212234427 39 22 6.1 7.8 0.00 0.00 0.06 92 990.6
20191212233922 39 22 9.6 9.6 0.00 0.00 0.06 91 990.8
20191212233417 39 135 4.3 9.6 0.00 0.00 0.06 93 990.7
20191212232911 39 27 6.1 12.2 0.00 0.00 0.06 90 990.6
20191212232406 39 22 7.0 8.7 0.00 0.00 0.06 90 990.6
20191212231901 39 135 6.1 8.7 0.00 0.00 0.06 91 990.5
20191212231356 39 135 11.3 13.9 0.00 0.00 0.06 90 990.8
20191212230342 39 22 7.0 9.6 0.00 0.00 0.06 90 990.8
20191212225837 39 27 5.2 11.3 0.00 0.00 0.06 91 990.9
20191212225332 39 22 7.8 13.0 0.00 0.00 0.06 91 991.0
20191212224827 39 22 7.0 13.9 0.00 0.00 0.06 90 991.0
20191212224322 39 22 12.2 13.0 0.00 0.00 0.06 90 990.9
20191212223816 39 135 12.2 12.2 0.00 0.00 0.06 91 991.1
20191212223311 40 135 8.7 12.2 0.00 0.00 0.06 90 991.0
20191212222806 40 22 8.7 14.8 0.00 0.00 0.06 92 991.1
20191212222301 40 22 11.3 16.5 0.00 0.00 0.06 94 991.2
20191212221756 40 22 8.7 10.4 0.00 0.00 0.06 93 991.1
20191212221250 40 22 10.4 12.2 0.00 0.00 0.06 93 991.1
20191212220745 40 22 12.2 18.2 0.00 0.00 0.06 97 991.2
20191212220240 39 337 8.7 9.6 0.00 0.00 0.06 93 991.1
20191212215735 39 22 8.7 9.6 0.00 0.00 0.06 92 991.3
20191212215230 39 22 5.2 7.0 0.00 0.00 0.06 92 991.2
20191212214724 38 18 3.5 5.2 0.00 0.00 0.06 92 991.2
20191212214219 38 22 3.5 4.3 0.00 0.00 0.06 92 991.3
20191212213714 39 13 4.3 4.3 0.00 0.00 0.06 91 991.4
20191212213209 39 18 2.6 3.5 0.00 0.00 0.06 91 991.3
20191212212704 39 4 2.6 3.5 0.00 0.00 0.06 93 991.4
20191212212158 39 324 3.5 5.2 0.00 0.00 0.06 91 991.2
20191212211653 39 292 5.2 5.2 0.00 0.00 0.06 93 991.3
20191212211148 39 292 4.3 5.2 0.00 0.00 0.06 96 991.3
20191212210643 39 292 2.6 5.2 0.00 0.00 0.06 91 991.3
20191212210138 39 292 4.3 7.0 0.00 0.00 0.06 91 991.3
20191212205632 39 346 3.5 6.1 0.00 0.00 0.06 91 991.5
20191212205127 39 306 5.2 6.1 0.00 0.00 0.06 92 991.5
20191212204622 40 324 4.3 7.0 0.00 0.00 0.06 90 991.2
20191212204117 40 40 2.6 5.2 0.00 0.00 0.06 92 991.4
20191212203612 40 310 7.0 7.0 0.00 0.00 0.06 91 991.4
20191212203106 40 18 4.3 5.2 0.00 0.00 0.06 92 991.4
20191212202601 41 346 6.1 11.3 0.00 0.00 0.06 92 991.6
20191212202056 41 320 8.7 13.0 0.00 0.00 0.06 91 991.6
20191212201551 41 18 7.0 11.3 0.00 0.00 0.06 96 991.4
20191212200539 41 18 7.8 11.3 0.00 0.00 0.06 91 991.5
20191212200032 41 45 7.8 18.2 0.00 0.00 0.06 91 991.4
20191212195527 41 18 7.8 16.5 0.00 0.00 0.06 91 991.5
20191212195022 41 31 7.8 9.6 0.00 0.00 0.06 89 991.4
20191212194517 41 45 10.4 10.4 0.00 0.00 0.06 91 991.5
20191212194011 41 45 8.7 13.0 0.00 0.00 0.06 90 991.5
20191212193506 41 45 9.6 18.2 0.00 0.00 0.06 92 991.6
20191212193001 41 45 10.4 18.2 0.00 0.00 0.06 91 991.5
20191212192456 41 320 12.2 14.8 0.00 0.00 0.06 94 991.5
20191212191951 41 342 14.8 20.9 0.00 0.00 0.06 94 991.6
20191212191445 41 306 11.3 13.9 0.00 0.00 0.06 92 991.6
20191212190940 41 22 11.3 13.0 0.00 0.00 0.06 93 991.6
20191212190435 41 22 6.1 10.4 0.00 0.00 0.06 93 991.5
20191212185930 41 328 6.1 7.8 0.00 0.00 0.06 93 991.6
20191212185425 41 292 6.1 13.0 0.00 0.00 0.06 93 991.4
20191212184919 41 346 7.0 7.8 0.00 0.00 0.06 91 991.5
20191212184414 41 27 6.1 9.6 0.00 0.00 0.06 93 991.5
20191212183909 41 320 7.8 11.3 0.00 0.00 0.06 91 991.5
20191212183404 41 337 7.0 16.5 0.00 0.00 0.06 91 991.5
20191212182859 41 45 6.1 8.7 0.00 0.00 0.06 91 991.6
20191212182353 41 45 6.1 11.3 0.00 0.00 0.06 91 991.5
20191212181848 41 45 9.6 13.0 0.00 0.00 0.06 92 991.5
20191212181343 41 45 14.8 15.6 0.00 0.00 0.06 91 991.5
20191212180838 41 45 13.9 15.6 0.00 0.00 0.06 92 991.5
20191212180333 41 11 14.8 16.5 0.00 0.00 0.06 91 991.6
20191212175827 40 45 14.8 20.9 0.00 0.00 0.06 95 991.5
20191212175322 40 45 14.8 17.4 0.00 0.00 0.06 92 991.4
20191212174817 40 45 9.6 15.6 0.00 0.00 0.06 93 991.5
20191212174312 40 45 13.0 13.9 0.00 0.00 0.06 91 991.6
20191212173807 40 45 11.3 13.0 0.00 0.00 0.06 92 991.6
20191212173301 40 45 10.4 17.4 0.00 0.00 0.05 92 991.7
20191212172756 40 45 13.0 19.1 0.00 0.00 0.05 92 991.6
20191212172251 40 45 15.6 18.2 0.00 0.00 0.05 92 991.7
20191212171746 40 31 15.6 26.1 0.00 0.00 0.05 91 991.8
20191212171241 40 45 17.4 20.9 0.00 0.00 0.04 86 991.7
20191212170735 40 45 21.7 26.9 0.00 0.00 0.04 91 991.7
20191212170230 40 45 15.6 26.1 0.00 0.00 0.04 92 991.7
20191212165725 41 45 13.9 21.7 0.00 0.00 0.03 91 992.0
20191212165220 40 45 15.6 26.9 0.00 0.00 0.02 91 991.8
20191212164206 40 99 11.3 27.8 0.00 0.00 0.02 91 991.9
20191212163701 40 45 11.3 16.5 0.00 0.00 0.02 91 992.0
20191212163156 40 31 13.0 16.5 0.00 0.00 0.02 91 992.2
20191212162651 40 45 16.5 20.9 0.00 0.00 0.02 89 992.0
20191212162146 40 45 11.3 25.2 0.00 0.00 0.02 93 992.3
20191212161640 40 45 12.2 19.1 0.00 0.00 0.02 90 992.2
20191212161135 40 45 18.2 23.5 0.00 0.00 0.02 89 992.3
20191212160630 40 45 13.9 17.4 0.00 0.00 0.01 88 992.3
20191212160125 40 324 13.0 18.2 0.00 0.00 0.01 89 992.4
20191212155620 41 45 10.4 19.1 0.00 0.00 0.01 89 992.4
20191212155114 41 4 15.6 26.9 0.00 0.00 0.01 89 992.5
20191212154609 41 45 19.1 30.4 0.00 0.00 0.01 88 992.5
20191212154104 41 31 13.0 20.0 0.00 0.00 0.01 88 992.5
20191212153559 41 45 13.0 21.7 0.00 0.00 0.01 88 992.5
20191212153054 41 28 14.8 16.5 0.00 0.00 0.01 88 992.4
20191212152548 41 45 9.6 13.9 0.00 0.00 0.01 89 992.5
20191212152043 41 45 13.0 19.1 0.00 0.00 0.01 87 992.5
20191212151538 41 45 13.0 20.0 0.00 0.00 0.01 88 992.6
20191212151033 41 45 10.4 15.6 0.00 0.00 0.01 89 992.7
20191212150528 41 4 17.4 17.4 0.00 0.00 0.01 91 992.7
20191212150022 40 45 20.9 20.9 0.00 0.00 0.01 91 992.7
20191212145517 40 31 16.5 23.5 0.00 0.00 0.01 92 992.7
20191212145012 39 45 15.6 20.0 0.00 0.00 0.01 93 992.9
20191212144507 39 45 7.8 10.4 0.00 0.00 0.01 95 992.9
20191212144002 38 45 9.6 9.6 0.00 0.00 0.01 91 992.9
20191212143456 38 45 3.5 7.0 0.00 0.00 0.01 92 993.0
20191212142951 38 99 4.3 7.0 0.00 0.00 0.01 92 993.0
20191212142446 39 45 5.2 6.1 0.00 0.00 0.01 90 993.0
20191212141941 39 45 6.1 7.0 0.00 0.00 0.01 91 993.1
20191212141436 39 81 7.0 9.6 0.00 0.00 0.01 91 993.1
20191212140930 39 45 5.2 12.2 0.00 0.00 0.01 91 993.1
20191212140425 39 63 7.0 13.0 0.00 0.00 0.01 91 993.2
20191212135920 40 45 7.8 13.0 0.00 0.00 0.01 90 993.2
20191212135415 40 90 6.1 8.7 0.00 0.00 0.01 92 993.1
20191212134910 40 45 5.2 8.7 0.00 0.00 0.01 90 993.2
20191212134404 40 63 5.2 7.8 0.00 0.00 0.01 92 993.3
20191212133859 41 45 5.2 7.0 0.00 0.00 0.01 91 993.2
20191212133354 41 31 9.6 13.9 0.00 0.00 0.01 91 993.3
20191212132849 41 45 5.2 12.2 0.00 0.00 0.01 94 993.2
20191212132343 40 45 7.0 8.7 0.00 0.00 0.01 91 993.2
20191212131838 40 4 6.1 10.4 0.00 0.00 0.01 91 993.3
20191212131333 40 31 7.0 9.6 0.00 0.00 0.01 92 993.3
20191212130828 40 351 7.0 9.6 0.00 0.00 0.01 91 993.4
20191212130323 40 45 7.0 8.7 0.00 0.00 0.01 91 993.6
20191212125817 39 63 7.0 7.0 0.00 0.00 0.01 92 993.5
20191212125312 39 45 6.1 7.0 0.00 0.00 0.01 93 993.5
20191212124259 39 81 7.0 11.3 0.00 0.00 0.01 91 993.7
20191212123754 40 45 5.2 12.2 0.00 0.00 0.01 94 993.8
20191212123248 40 45 13.0 17.4 0.00 0.00 0.01 91 993.8
20191212122743 40 45 9.6 15.6 0.00 0.00 0.00 92 993.9
20191212122238 40 45 10.4 16.5 0.00 0.00 0.00 96 993.8
20191212121733 40 63 8.7 11.3 0.00 0.00 0.00 93 993.8
20191212121228 40 45 7.0 9.6 0.00 0.00 0.00 92 993.8
20191212120722 40 45 5.2 7.8 0.00 0.00 0.00 92 994.0
20191212120217 40 63 6.1 8.7 0.00 0.00 0.11 92 994.0
20191212115712 40 45 8.7 8.7 0.00 0.00 0.11 92 994.0
20191212115207 40 45 6.1 7.0 0.00 0.00 0.11 92 994.1
20191212114702 40 45 5.2 8.7 0.00 0.00 0.11 93 994.1
20191212114156 40 45 4.3 9.6 0.00 0.00 0.11 91 994.2
20191212113651 40 45 6.1 7.0 0.00 0.00 0.09 94 994.3
20191212113146 40 342 5.2 15.6 0.00 0.00 0.09 91 994.4
20191212112641 40 45 7.0 11.3 0.00 0.00 0.09 91 994.4
20191212112136 40 45 7.8 8.7 0.00 0.00 0.09 92 994.3
20191212111630 40 45 9.6 10.4 0.00 0.00 0.09 94 994.3
20191212111125 40 36 10.4 10.4 0.00 0.00 0.09 92 994.4
20191212110620 40 22 7.8 10.4 0.00 0.00 0.09 92 994.4
20191212110115 40 135 7.8 13.9 0.00 0.00 0.09 92 994.4
20191212105610 40 22 7.8 10.4 0.00 0.00 0.09 94 994.5
20191212105104 40 135 8.7 8.7 0.00 0.00 0.09 91 994.7
20191212104559 40 45 5.2 10.4 0.00 0.00 0.09 91 994.7
20191212104054 40 45 7.0 10.4 0.00 0.00 0.09 91 994.7
20191212103549 40 135 11.3 11.3 0.00 0.00 0.09 94 994.7
20191212103044 40 63 7.0 10.4 0.00 0.00 0.09 93 994.8
20191212102538 40 99 11.3 13.9 0.00 0.00 0.09 92 994.9
20191212102033 40 22 7.0 12.2 0.00 0.00 0.09 92 994.9
20191212101528 40 135 7.8 7.8 0.00 0.00 0.09 94 994.9
20191212101023 40 22 5.2 12.2 0.00 0.00 0.09 94 995.0
20191212100518 40 135 11.3 13.0 0.00 0.00 0.09 92 995.0
20191212100012 40 27 7.0 10.4 0.00 0.00 0.09 91 995.1
20191212095507 40 135 9.6 10.4 0.00 0.00 0.09 92 995.2
20191212095002 40 135 6.1 13.0 0.00 0.00 0.09 94 995.4
20191212094457 40 63 6.1 9.6 0.00 0.00 0.09 94 995.4
20191212093952 40 135 10.4 11.3 0.00 0.00 0.09 92 995.5
20191212093447 40 135 7.0 11.3 0.00 0.00 0.09 92 995.5
20191212092941 40 135 6.1 10.4 0.00 0.00 0.09 96 995.6
20191212092436 40 45 6.1 7.8 0.00 0.00 0.09 93 995.7
20191212091931 40 81 7.8 8.7 0.00 0.00 0.09 92 995.7
20191212091426 40 63 7.8 8.7 0.00 0.00 0.09 93 995.7
20191212090920 40 33 9.6 11.3 0.00 0.00 0.09 92 995.7
20191212090415 40 81 6.1 9.6 0.00 0.00 0.09 92 995.9
20191212085910 40 135 5.2 6.1 0.00 0.00 0.09 94 996.0
20191212085405 40 135 4.3 6.1 0.00 0.00 0.09 93 996.0
20191212084900 40 31 4.3 8.7 0.00 0.00 0.09 93 995.9
20191212084354 40 63 3.5 6.1 0.00 0.00 0.09 93 996.0
20191212083849 40 22 5.2 7.8 0.00 0.00 0.09 93 996.0
20191212083344 40 40 6.1 7.0 0.00 0.00 0.09 96 996.1
20191212082839 40 22 7.0 7.8 0.00 0.00 0.09 93 996.0
20191212082334 40 180 7.8 7.8 0.00 0.00 0.09 92 996.0
20191212081828 40 180 4.3 6.1 0.00 0.00 0.09 93 996.1
20191212081323 40 153 7.8 7.8 0.00 0.00 0.09 93 996.1
20191212080818 40 135 3.5 4.3 0.00 0.00 0.09 94 996.1
20191212080313 40 135 6.1 6.1 0.00 0.00 0.09 95 996.1
20191212075808 40 135 6.1 6.1 0.00 0.00 0.09 94 996.2
20191212075305 40 135 2.6 5.2 0.00 0.00 0.09 95 996.2
20191212074757 40 180 4.3 6.1 0.00 0.00 0.09 95 996.2
20191212074252 40 135 4.3 7.0 0.00 0.00 0.09 94 996.2
20191212073747 40 135 3.5 7.0 0.00 0.00 0.09 93 996.2
20191212073242 40 144 2.6 5.2 0.00 0.00 0.09 95 996.2
20191212072736 40 171 3.5 5.2 0.00 0.00 0.09 93 996.3
20191212072231 40 135 0.9 4.3 0.00 0.00 0.09 93 996.3
20191212071726 40 135 1.7 3.5 0.00 0.00 0.09 93 996.4
20191212071221 40 297 0.0 0.0 0.00 0.00 0.09 94 996.4
20191212070716 41 0 0.0 0.0 0.00 0.00 0.09 93 996.4
20191212070210 41 0 0.0 0.9 0.00 0.00 0.09 95 996.5
20191212065705 41 337 0.9 5.2 0.00 0.00 0.09 93 996.5
20191212065200 41 22 4.3 5.2 0.00 0.00 0.09 94 996.5
20191212064655 41 180 2.6 5.2 0.00 0.00 0.09 95 996.5
20191212064150 41 180 4.3 7.0 0.00 0.00 0.09 94 996.6
20191212063644 41 135 5.2 7.8 0.00 0.00 0.09 93 996.5
20191212063139 41 135 5.2 6.1 0.00 0.00 0.09 96 996.5
20191212062634 41 135 3.5 5.2 0.00 0.00 0.08 94 996.6
20191212062129 41 135 3.5 6.1 0.00 0.00 0.08 93 996.5
20191212061624 41 135 1.7 6.1 0.00 0.00 0.08 94 996.6
20191212061118 41 153 6.1 7.0 0.00 0.00 0.08 93 996.5
20191212060613 41 135 3.5 6.1 0.00 0.00 0.08 96 996.5
20191212060108 41 153 3.5 7.0 0.00 0.00 0.08 95 996.6
20191212055603 41 135 3.5 5.2 0.00 0.00 0.08 93 996.6
20191212055058 41 135 6.1 6.1 0.00 0.00 0.08 93 996.7
20191212054552 41 342 0.9 0.9 0.00 0.00 0.08 93 996.7
20191212054047 41 337 0.0 0.9 0.00 0.00 0.08 94 996.8
20191212053542 41 90 0.0 0.0 0.00 0.00 0.08 94 996.9
20191212053037 41 90 0.0 0.9 0.00 0.00 0.08 93 996.8
20191212052532 41 90 0.0 1.7 0.00 0.00 0.08 94 996.8
20191212052026 41 135 0.0 0.0 0.00 0.00 0.08 94 996.9
20191212051521 40 22 0.0 0.9 0.00 0.00 0.08 93 996.8